Tracking 20715 objects as of 27-May-2020
HD Live streaming from Space Station
objects crossing your sky now

IRIDIUM 33 DEB

Track IRIDIUM 33 DEB now!
10-day predictions


NORAD ID: 35747
Int'l Code: 1997-051SA
Perigee: 735.1 km
Apogee: 986.1 km
Inclination: 86.1 °
Period: 102.0 minutes
Semi major axis: 7231 km
RCS: 0.0033 m2 (small)
Launch date: September 14, 1997
Source: United States (US)
Launch site: TYURATAM MISSILE AND SPACE COMPLEX (TTMTR)

Note: This is SATELLITE DEBRIS
aabbcc
Your satellite tracking list
Your tracking list is empty




NASA's NSSDC Master Catalog

Two Line Element Set (TLE):
1 35747U 97051SA  20139.80901539  .00001740  00000-0  82156-3 0  9995
2 35747  86.1361 170.8886 0173487 337.8267  21.5473 14.11727078556092
Source of the keplerian elements: AFSPC